Wind_Speed
48 49 51 53 54 55 56 58 61 63 63 63 65 67 69 70 72 74 75 78 80 84 88 92 96 100 103 105 106 105 103 99 96 93 90 89 89 90
49 51 53 55 55 56 59 62 65 67 67 67 69 70 71 72 75 78 81 85 89 94 99 102 105 106 104 100 94 86 79 72 67 64 62 62 62 62
52 53 55 55 57 60 62 64 66 68 69 68 70 72 74 77 80 84 89 93 98 102 104 104 101 95 86 77 67 60 55 51 49 48 48 49 49 50
54 56 56 58 60 63 64 65 67 68 70 70 71 74 78 83 87 91 96 100 101 100 96 90 81 71 62 54 49 45 43 42 42 43 44 46 47 48
56 57 59 61 63 64 66 67 68 69 71 73 76 80 85 90 94 98 99 97 91 84 76 68 60 53 48 45 42 40 38 38 39 40 41 43 45 47
58 60 62 63 64 65 66 67 68 71 75 79 82 87 92 97 99 97 90 81 71 63 57 53 48 46 44 42 40 39 38 38 38 38 39 40 41 42
60 61 62 64 64 65 66 68 72 76 80 84 89 94 97 97 93 85 74 62 54 52 48 46 45 43 43 42 41 40 39 38 38 38 37 37 37 38
60 61 62 63 63 65 68 72 77 82 87 92 96 98 95 89 79 67 58 51 47 48 47 43 43 42 42 43 42 41 39 38 37 37 36 35 35 34
60 61 61 62 64 68 72 77 83 89 94 97 96 91 82 71 62 54 50 48 47 47 46 42 41 40 41 42 43 41 38 37 36 35 34 33 34 35
59 60 62 64 68 72 76 81 87 93 95 92 86 75 65 56 52 50 48 46 43 44 45 42 39 38 38 40 42 40 38 36 34 33 33 33 34 35
59 61 65 68 72 77 82 87 91 91 88 79 70 60 53 51 51 49 47 46 42 41 44 42 39 36 34 37 40 39 36 34 32 31 32 32 33 34
61 65 69 73 78 83 87 89 88 82 72 62 55 51 50 50 50 49 47 46 44 42 42 40 37 36 31 32 37 37 34 32 31 30 31 32 34 35
63 68 72 77 82 86 88 86 78 67 57 49 46 46 47 48 48 48 48 47 45 43 42 39 35 34 32 27 30 34 33 30 29 30 31 33 35 36
67 72 77 81 85 86 83 74 63 53 46 42 42 44 45 46 46 46 46 46 46 44 41 38 34 31 28 24 24 28 29 28 28 29 31 33 36 37
73 77 81 84 84 79 70 59 48 41 38 39 41 43 44 45 45 44 44 43 43 43 41 37 32 28 24 20 19 21 23 25 27 28 30 32 33 33
77 80 83 82 76 65 54 44 37 35 36 38 40 42 43 44 44 44 42 40 38 36 37 35 30 26 20 17 15 15 17 20 23 26 27 27 28 28
79 81 78 71 59 48 39 33 32 34 36 39 41 43 43 43 43 42 40 38 34 31 28 28 27 23 19 14 10 10 13 17 20 22 21 22 24 26
80 76 66 54 42 33 28 28 31 33 36 39 41 42 42 41 39 38 37 34 30 27 24 21 19 18 17 15 11 8 12 16 19 21 21 21 22 26
72 60 47 36 28 23 23 26 29 33 36 39 41 41 40 38 36 34 32 29 26 24 21 18 15 13 11 13 16 14 14 16 19 21 22 23 23 24
55 41 30 22 18 19 21 25 29 32 35 38 39 39 37 35 33 31 28 25 22 20 18 17 14 12 10 10 13 17 18 18 19 20 22 23 23 24
35 24 17 14 15 18 21 25 29 32 35 37 38 37 35 32 30 28 26 23 21 19 17 15 14 13 12 12 14 16 18 19 19 20 20 20 21 22
17 12 9 11 14 18 21 25 29 32 34 36 36 35 34 31 29 27 25 23 21 19 17 15 14 13 14 14 16 16 17 19 21 22 22 21 20 19
7 6 7 11 15 19 22 26 29 32 34 35 35 34 33 31 30 28 25 23 21 18 17 16 16 15 15 16 16 16 17 19 20 21 23 22 21 20
Wind_Direction
295 295 295 296 296 296 296 298 298 298 298 299 299 299 298 298 298 297 296 295 294 293 292 291 290 290 289 287 286 284 282 280 278 275 272 270 268 266
296 296 296 297 297 298 299 300 301 301 301 302 301 302 301 301 300 299 298 298 297 296 295 295 294 292 291 290 288 286 284 281 277 274 272 271 269 267
296 297 298 299 300 301 301 302 302 303 303 304 304 304 303 302 302 302 301 301 300 298 297 296 295 294 293 291 288 285 281 278 275 273 272 271 269 268
297 298 300 301 302 302 303 303 304 305 305 305 305 304 304 304 303 303 303 302 301 299 297 296 295 294 293 290 286 282 278 277 276 274 273 271 270 270
298 300 301 302 303 304 305 306 306 307 307 307 307 307 306 306 305 305 304 303 301 299 297 296 295 294 292 288 285 282 281 279 278 276 274 273 272 272
300 301 303 304 305 306 307 307 308 308 308 308 308 308 308 307 307 306 305 303 301 298 297 297 295 293 291 289 286 285 284 282 281 279 278 278 277 276
301 302 304 305 306 307 308 308 309 309 309 309 309 309 309 308 307 307 305 303 300 297 297 296 294 292 290 288 286 286 285 285 284 284 284 283 284 284
302 304 305 306 307 308 309 310 310 310 309 310 310 310 310 309 308 307 305 303 299 296 296 294 292 290 288 286 285 285 285 284 284 284 284 285 287 288
303 304 305 307 308 309 310 310 311 311 311 311 311 311 311 310 309 308 306 305 303 299 295 292 289 288 286 284 284 284 283 282 281 281 281 283 285 287
304 305 306 308 309 309 310 311 311 312 312 312 312 311 311 310 309 309 308 307 307 304 300 297 292 288 286 284 283 283 282 280 278 277 278 281 284 287
305 306 308 309 309 310 311 312 313 313 313 312 312 312 312 311 311 311 310 309 309 308 304 303 297 291 287 285 283 282 280 277 276 276 278 282 284 287
307 308 309 310 311 311 313 313 314 314 313 312 312 313 313 313 313 313 312 311 310 309 305 304 300 294 288 283 282 281 279 277 276 277 281 285 289 290
308 309 310 311 312 313 314 314 315 314 314 313 313 314 315 314 314 314 314 313 312 311 309 306 303 297 292 282 276 278 278 277 278 281 286 290 293 294
309 309 310 312 313 314 315 315 315 315 315 316 316 317 317 316 316 315 315 315 314 314 313 311 308 303 296 286 275 272 276 279 280 284 288 292 294 296
310 310 312 313 314 315 316 316 316 317 318 319 320 320 319 318 317 317 317 317 317 315 315 314 312 309 302 292 277 270 272 277 283 288 292 293 294 295
311 312 313 314 315 315 315 316 317 319 322 323 323 323 322 321 320 319 319 318 318 316 315 316 316 315 309 300 287 275 274 276 281 288 293 294 297 299
311 312 313 314 314 315 316 318 321 324 326 327 327 326 325 323 322 322 322 322 321 319 315 315 318 320 319 311 295 287 285 290 295 299 300 302 302 304
312 313 313 313 314 315 317 321 325 329 330 331 330 329 328 327 326 326 326 326 325 324 323 321 320 320 321 320 317 313 308 307 310 312 313 313 310 309
313 313 313 312 314 316 321 327 331 334 335 334 334 333 333 333 332 332 331 331 331 331 332 333 334 332 326 318 321 327 325 321 320 319 319 319 317 316
313 312 312 313 316 323 329 335 338 339 340 340 340 340 340 340 340 340 340 341 343 344 344 345 348 348 341 332 324 325 328 328 326 325 324 322 322 323
313 312 313 318 326 333 338 341 344 346 346 346 347 348 349 349 350 351 352 353 355 356 356 355 355 354 351 345 339 334 332 333 333 334 332 328 326 327
314 316 324 333 338 342 345 348 350 351 352 352 353 354 356 357 359 0 3 5 4 4 3 4 3 360 355 350 347 343 340 340 341 341 340 341 341 340
328 341 348 348 349 350 351 352 354 355 357 357 357 359 1 4 6 8 10 10 10 11 11 10 7 3 359 356 355 353 351 349 347 345 345 346 348 350
Height
5679 5674 5670 5665 5660 5655 5650 5644 5640 5636 5634 5627 5618 5611 5603 5596 5588 5581 5574 5566 5558 5549 5540 5531 5522 5513 5503 5494 5485 5476 5468 5461 5455 5451 5448 5445 5445 5445
5668 5663 5658 5653 5648 5642 5636 5630 5623 5617 5612 5607 5598 5590 5582 5575 5566 5558 5550 5540 5530 5518 5507 5496 5485 5475 5465 5455 5445 5438 5431 5426 5422 5420 5419 5418 5417 5418
5656 5651 5646 5640 5635 5628 5622 5615 5607 5599 5593 5588 5578 5569 5561 5552 5544 5533 5523 5512 5500 5486 5473 5461 5449 5439 5430 5423 5417 5412 5408 5405 5403 5402 5401 5400 5399 5399
5644 5639 5633 5627 5621 5614 5606 5599 5591 5582 5574 5569 5562 5551 5541 5530 5521 5510 5497 5483 5469 5454 5442 5430 5419 5412 5406 5401 5398 5395 5393 5391 5389 5388 5386 5385 5384 5383
5632 5626 5619 5613 5606 5598 5590 5582 5573 5564 5555 5547 5541 5530 5518 5505 5495 5483 5469 5453 5438 5425 5415 5407 5400 5395 5390 5386 5383 5381 5379 5378 5376 5374 5372 5371 5369 5368
5619 5612 5605 5598 5590 5582 5573 5564 5555 5546 5536 5527 5518 5508 5495 5480 5466 5455 5444 5428 5415 5402 5396 5390 5385 5381 5376 5372 5370 5368 5366 5364 5362 5360 5358 5356 5354 5352
5605 5598 5590 5582 5574 5565 5557 5547 5538 5528 5518 5507 5496 5484 5470 5455 5441 5428 5417 5409 5398 5385 5384 5377 5372 5368 5363 5359 5356 5354 5353 5350 5348 5346 5343 5341 5339 5337
5592 5584 5576 5567 5559 5550 5540 5530 5518 5506 5496 5484 5472 5458 5444 5429 5417 5406 5397 5391 5386 5375 5370 5366 5359 5356 5351 5347 5344 5342 5340 5337 5335 5333 5330 5328 5326 5323
5578 5570 5562 5553 5544 5535 5525 5514 5500 5484 5471 5459 5447 5431 5419 5407 5399 5391 5382 5375 5369 5360 5355 5353 5347 5343 5338 5333 5330 5328 5327 5324 5322 5320 5319 5316 5314 5311
5563 5555 5547 5538 5528 5519 5509 5497 5482 5466 5451 5435 5423 5411 5400 5390 5383 5377 5369 5363 5357 5346 5338 5337 5334 5330 5325 5319 5315 5314 5313 5311 5310 5308 5307 5305 5302 5299
5549 5540 5531 5522 5512 5502 5491 5479 5464 5446 5429 5414 5402 5393 5385 5377 5369 5363 5356 5349 5345 5337 5326 5322 5319 5316 5314 5308 5302 5300 5299 5299 5298 5296 5295 5293 5290 5288
5536 5526 5515 5505 5493 5481 5470 5457 5444 5429 5414 5401 5390 5381 5373 5365 5357 5349 5343 5336 5330 5325 5317 5311 5306 5301 5302 5298 5291 5288 5287 5286 5286 5285 5283 5281 5278 5275
5522 5511 5499 5488 5475 5462 5449 5436 5423 5412 5401 5391 5382 5373 5365 5356 5347 5339 5330 5323 5316 5311 5304 5299 5294 5289 5286 5286 5282 5277 5276 5276 5275 5274 5272 5270 5266 5262
5506 5495 5483 5470 5457 5443 5430 5418 5407 5398 5390 5382 5374 5365 5357 5348 5339 5330 5321 5312 5304 5297 5291 5286 5282 5278 5275 5273 5272 5269 5267 5266 5266 5265 5262 5259 5255 5251
5488 5476 5464 5451 5438 5425 5413 5404 5395 5388 5381 5374 5366 5357 5348 5338 5329 5321 5312 5304 5295 5286 5280 5275 5271 5268 5265 5263 5263 5261 5260 5259 5257 5256 5253 5250 5245 5241
5470 5457 5445 5432 5420 5410 5401 5393 5386 5380 5374 5366 5358 5349 5339 5329 5319 5311 5304 5296 5289 5281 5272 5266 5262 5259 5257 5256 5255 5255 5254 5253 5252 5248 5245 5241 5236 5231
5454 5441 5428 5416 5406 5398 5391 5385 5380 5373 5366 5358 5349 5340 5330 5320 5311 5302 5294 5287 5280 5274 5269 5263 5257 5254 5251 5250 5250 5249 5248 5247 5244 5241 5237 5233 5228 5223
5434 5423 5412 5402 5396 5390 5385 5380 5374 5367 5360 5351 5341 5332 5322 5312 5303 5295 5287 5280 5273 5268 5262 5258 5255 5252 5249 5246 5245 5245 5244 5241 5238 5234 5229 5226 5221 5215
5415 5406 5398 5393 5388 5384 5380 5375 5369 5362 5354 5345 5335 5325 5315 5306 5297 5289 5281 5275 5269 5263 5258 5255 5252 5250 5248 5246 5243 5241 5239 5236 5232 5228 5223 5218 5213 5208
5399 5393 5389 5386 5383 5380 5376 5371 5365 5357 5349 5339 5329 5319 5309 5300 5292 5285 5277 5271 5266 5261 5257 5253 5251 5248 5246 5245 5242 5239 5235 5231 5227 5223 5218 5213 5207 5201
5388 5385 5383 5382 5379 5376 5372 5367 5361 5353 5345 5335 5325 5315 5306 5297 5289 5282 5276 5270 5265 5261 5257 5254 5251 5249 5246 5243 5241 5237 5233 5228 5223 5219 5214 5209 5203 5196
5382 5381 5380 5379 5377 5373 5369 5364 5357 5350 5341 5332 5323 5313 5304 5296 5289 5282 5276 5270 5266 5262 5258 5255 5252 5249 5246 5243 5239 5235 5231 5227 5221 5215 5209 5204 5198 5192
5379 5379 5378 5377 5374 5371 5366 5361 5354 5347 5339 5331 5322 5313 5305 5297 5290 5283 5277 5273 5268 5264 5260 5257 5254 5250 5247 5243 5239 5234 5230 5225 5220 5215 5209 5202 5195 5189